Dewpoint
53 46 47 39 26 22 18 17 19 17 25 44 46 45 52 54 51 45 62 62 64 66 70 69 69 70 70 69 69 68 68 69 70 70 69 70 69 68 68 67 66 65 65 64 64 65 65 65 65
47 38 39 32 19 17 16 18 15 18 38 45 49 50 51 51 55 59 61 62 60 64 68 68 69 70 69 69 68 68 69 69 70 70 69 70 69 68 67 67 65 65 64 63 63 64 62 61 63
45 38 28 23 19 17 16 17 28 38 45 47 51 53 54 53 56 58 60 65 63 60 63 67 69 69 69 69 68 67 68 69 69 69 70 70 68 68 67 66 65 64 63 62 63 62 60 61 63
38 31 27 19 17 18 17 19 35 44 46 46 48 47 53 62 60 63 60 65 65 65 66 68 68 69 69 68 68 68 68 68 68 69 69 70 68 68 67 66 65 64 62 62 60 60 60 62 63
37 26 19 21 19 20 20 34 44 45 45 46 48 49 53 60 62 64 60 62 64 65 66 67 67 68 68 67 68 68 68 68 68 69 69 69 68 68 67 65 65 64 63 60 59 60 61 61 63
30 25 20 20 20 19 29 35 46 45 45 46 45 49 54 61 61 63 63 62 62 64 66 67 68 68 67 67 68 68 68 69 69 69 69 69 68 67 67 65 65 65 64 63 62 61 61 60 61
26 23 20 19 16 22 34 39 47 47 47 48 49 46 51 57 61 63 61 62 63 65 65 64 64 64 67 64 67 67 67 68 68 68 68 69 67 67 66 66 65 64 63 62 61 60 59 59 59
25 23 20 17 16 21 34 38 47 47 48 53 51 47 50 58 61 62 62 62 64 63 63 64 65 64 62 62 66 67 67 67 67 67 67 66 66 66 66 65 64 63 62 61 60 59 59 59 59
21 18 15 15 17 20 34 37 47 49 47 51 54 56 58 60 60 61 61 61 62 63 63 63 63 63 63 63 66 66 66 66 65 66 65 64 64 63 62 63 63 63 61 60 59 59 57 55 57
20 17 16 18 21 21 35 42 47 45 47 52 54 58 59 60 59 59 59 58 59 61 62 62 61 62 62 64 64 64 63 60 60 59 59 60 61 61 61 62 62 61 61 60 59 57 55 52 45
19 18 18 18 22 26 45 46 45 40 41 47 51 56 58 58 58 58 57 59 59 59 61 60 60 61 61 62 62 61 59 59 57 56 58 59 61 61 61 60 59 58 59 55 53 48 48 46 44
18 20 18 17 24 28 38 47 49 47 47 50 54 57 57 56 56 56 56 55 56 58 58 59 59 59 59 60 60 60 57 59 59 59 59 58 58 57 57 56 56 53 51 49 48 49 48 45 43
24 19 20 22 27 43 46 49 52 53 54 55 56 57 56 56 56 56 56 55 55 55 56 57 58 58 58 58 58 59 60 60 60 58 58 56 55 55 55 54 52 50 49 47 51 49 47 45 42
28 28 25 22 23 46 50 52 50 53 54 54 55 56 56 55 55 55 55 54 54 55 55 55 55 56 57 57 57 58 58 58 59 60 58 57 56 55 54 55 51 50 50 47 51 47 46 43 39
27 23 23 22 23 36 39 38 46 54 54 53 54 55 54 54 54 54 54 53 54 55 55 54 55 56 56 56 56 57 58 56 55 56 58 58 57 57 57 57 54 52 51 52 50 49 47 44 40
24 24 20 20 34 35 32 32 43 54 53 51 52 53 53 53 53 53 53 53 54 55 55 55 55 55 54 55 53 55 56 54 51 51 57 57 57 58 58 58 56 55 53 53 51 49 46 45 41
26 20 21 21 27 36 34 35 39 50 52 50 50 51 52 52 53 53 52 53 53 53 54 54 54 54 53 54 54 55 53 49 48 49 53 56 56 57 57 56 56 55 53 50 49 47 46 42 41
21 21 19 20 33 36 37 35 41 46 49 47 48 45 52 52 52 52 52 52 52 52 52 53 53 53 53 54 54 54 52 48 48 49 53 55 57 57 58 56 56 54 52 50 48 47 47 44 42
23 22 20 20 29 35 36 35 38 46 50 47 46 45 46 51 52 52 52 51 51 51 51 52 52 53 52 51 53 52 50 49 50 51 53 57 57 59 58 57 56 54 51 51 49 47 43 42 42
24 22 22 20 27 30 36 36 38 44 47 50 45 46 48 51 52 51 52 50 50 50 51 51 52 52 51 51 51 50 49 49 51 51 55 59 60 59 58 57 56 53 52 51 49 46 43 40 41
24 23 22 17 24 26 36 34 37 39 45 45 48 45 48 51 51 50 51 50 49 49 50 51 51 50 50 49 48 47 49 52 51 51 53 56 59 59 59 57 56 53 52 52 50 46 43 41 42
23 26 22 19 23 20 24 20 39 38 40 42 44 43 49 49 51 50 50 50 49 48 49 50 50 49 49 49 46 45 46 47 49 52 52 56 59 59 58 58 56 54 53 52 51 47 44 43 42
26 28 23 25 24 23 22 20 22 38 38 39 43 41 45 48 49 50 50 50 49 47 46 46 48 47 48 49 47 46 46 48 53 51 51 55 58 58 56 57 57 55 54 54 53 48 46 48 48
26 25 26 27 25 22 23 22 24 36 35 37 41 40 45 48 49 50 51 50 48 47 45 45 45 45 51 49 49 49 50 52 54 51 51 53 56 58 58 58 58 56 56 55 53 51 48 49 47
24 23 22 21 22 22 27 28 27 29 35 38 40 41 41 47 49 49 50 51 49 47 47 47 47 48 51 52 51 51 53 55 53 51 53 54 56 56 58 58 58 56 54 54 53 50 49 48 47
24 23 23 19 22 21 31 24 25 30 33 35 39 41 42 42 47 48 49 51 51 48 48 49 50 51 51 52 52 52 53 54 55 53 53 57 57 58 59 59 58 56 53 52 52 50 50 48 48
24 22 25 24 31 27 28 29 30 31 29 31 33 39 40 42 43 47 48 49 51 52 50 50 51 52 52 53 53 53 54 55 56 54 55 56 58 58 58 57 56 54 53 52 51 50 48 48 48
22 24 23 27 21 23 27 27 25 28 26 29 29 38 39 41 42 43 46 49 50 51 52 52 52 51 52 53 54 54 54 55 56 56 56 57 55 56 56 54 53 52 51 50 50 49 48 47 48
23 22 28 27 29 24 24 24 32 30 30 30 28 26 35 37 39 42 43 47 48 50 51 53 53 53 53 55 55 54 55 56 57 57 57 57 57 56 54 53 51 51 50 49 48 47 47 47 46
23 22 26 25 26 29 27 24 30 30 32 30 26 23 29 32 35 39 42 44 46 47 49 51 53 54 55 55 56 57 58 57 58 58 58 57 57 57 55 53 53 50 49 48 47 46 47 46 45
Lifted_Index
9 9 8 8 7 5 3 2 1 1 -0 -2 -3 -3 -4 -5 -5 -5 -5 -4 -5 -5 -5 -4 -3 -4 -4 -4 -3 -3 -3 -4 -4 -4 -3 -3 -2 -2 -1 -0 0 1 2 2 2 2 2 2 2
9 9 9 8 6 4 3 2 1 1 -1 -3 -3 -4 -4 -4 -5 -5 -5 -4 -4 -4 -4 -4 -3 -3 -4 -4 -3 -3 -3 -4 -4 -4 -4 -3 -2 -2 -1 -0 1 1 2 2 2 2 3 3 2
9 9 8 7 5 4 3 2 1 -1 -2 -3 -3 -3 -3 -3 -4 -4 -5 -4 -3 -3 -3 -3 -3 -3 -4 -4 -3 -3 -4 -4 -4 -4 -4 -4 -3 -2 -1 -0 1 1 2 2 2 3 3 3 2
8 8 7 5 4 3 3 2 -0 -1 -2 -2 -3 -2 -3 -3 -4 -4 -4 -4 -3 -3 -3 -4 -4 -3 -3 -3 -3 -3 -4 -4 -4 -4 -4 -4 -3 -2 -1 -0 1 2 2 3 3 4 4 3 2
8 7 6 4 3 3 2 1 -1 -1 -1 -1 -1 -1 -2 -3 -4 -3 -3 -4 -4 -4 -4 -4 -4 -2 -1 -1 -2 -3 -4 -4 -4 -4 -4 -4 -3 -2 -1 -0 1 2 2 3 4 5 5 3 2
8 7 5 4 3 3 2 1 -1 -1 -1 -0 -0 -1 -2 -3 -3 -4 -4 -4 -4 -4 -4 -4 -3 -2 -1 -0 -2 -3 -3 -4 -4 -4 -4 -4 -3 -2 -1 -0 1 2 3 4 5 6 6 4 3
7 6 4 3 3 2 2 0 -1 -1 -1 -0 -0 -0 -1 -2 -3 -4 -4 -3 -4 -4 -4 -3 -2 -1 0 1 -1 -3 -3 -3 -3 -4 -3 -3 -2 -2 -1 -0 1 2 3 5 6 6 6 5 4
7 5 4 3 3 2 2 1 -0 -1 -1 -1 -1 -1 -1 -2 -3 -4 -4 -3 -3 -3 -3 -2 -1 -0 1 1 -1 -2 -2 -2 -3 -3 -2 -2 -2 -1 -0 0 1 3 4 6 6 7 7 6 5
6 5 4 3 3 2 1 0 0 0 -0 -1 -1 -1 -1 -2 -2 -3 -3 -3 -3 -3 -2 -1 0 1 2 1 -0 -1 -1 -1 -2 -2 -1 -1 -1 0 1 2 2 4 5 6 7 7 6 6 6
6 5 4 4 3 2 1 -0 -0 0 0 -0 -1 -1 -1 -1 -2 -2 -3 -2 -2 -2 -1 1 2 2 2 1 0 0 0 0 0 -0 -0 0 1 1 2 3 4 5 5 6 7 6 6 7 7
6 5 5 4 4 2 0 -1 -0 0 1 0 -1 -1 -1 -1 -1 -2 -2 -2 -2 -1 -0 1 2 2 2 1 1 1 2 2 2 2 2 2 2 3 3 4 4 5 5 6 6 6 5 6 7
6 5 5 4 3 1 -0 -1 -1 -1 -0 -0 -1 -1 -1 -0 -0 -1 -1 -1 -1 -1 -1 0 1 1 2 2 1 2 3 3 3 3 3 4 4 4 4 5 4 4 5 5 5 4 5 6 7
6 5 5 4 2 0 -1 -1 -2 -1 -1 -1 -1 -1 -1 0 1 0 -0 -0 -0 -0 -0 -0 1 2 2 2 2 3 3 3 3 3 4 4 5 5 5 5 4 3 3 4 3 3 4 6 7
6 5 4 3 2 0 -1 -1 -2 -2 -1 -1 -1 -1 -0 1 1 1 1 0 0 0 0 0 1 2 3 4 4 3 3 3 3 3 4 4 5 5 5 4 3 3 2 2 2 3 4 6 7
6 5 4 3 2 1 0 -0 -1 -2 -2 -1 -1 -0 1 2 2 2 2 1 1 1 1 1 2 3 4 5 4 4 4 4 3 3 3 3 4 4 3 3 2 2 1 1 2 3 4 6 6
6 5 3 3 2 1 1 0 -1 -2 -2 -1 -0 0 1 2 3 3 2 2 2 2 2 2 3 4 5 6 5 5 5 5 5 4 3 2 2 2 2 1 0 1 1 1 1 2 4 5 6
5 4 3 2 2 1 0 -0 -1 -2 -2 -1 -0 0 1 1 2 2 2 2 2 2 2 3 4 5 5 6 6 6 6 6 6 5 4 2 2 1 0 -0 -0 0 1 1 1 2 3 4 5
5 4 3 3 2 1 -0 -0 -0 -1 -2 -1 -0 0 1 1 1 2 2 2 2 2 2 3 3 4 5 6 6 6 7 7 6 6 5 3 2 1 0 0 0 1 1 1 1 2 2 4 5
5 4 4 3 2 0 -0 -0 0 -0 -1 -1 -1 -0 0 0 1 1 2 2 2 2 3 3 3 4 5 5 6 6 7 7 7 6 5 3 2 1 0 0 0 0 0 0 1 1 2 3 4
4 4 4 3 1 0 -0 -0 0 -0 -1 -2 -1 -1 -0 0 0 1 2 2 3 3 3 3 4 4 5 6 6 6 7 7 6 6 5 3 1 -0 -0 -0 -0 -0 -0 -0 0 1 2 3 4
4 4 3 3 2 1 0 0 0 0 -0 -1 -2 -1 -0 -0 -0 0 2 3 3 3 3 3 3 4 4 5 6 6 6 6 6 5 4 3 1 -0 -1 -1 -1 -0 -0 -0 -0 0 1 3 4
3 3 3 3 3 2 1 1 0 0 -0 -1 -2 -1 -1 -1 -0 0 1 2 3 4 4 4 4 4 4 5 6 6 6 6 5 4 4 3 1 0 -1 -1 -1 -1 -1 -1 -0 0 1 2 3
3 3 3 3 3 3 2 1 1 0 -0 -1 -1 -2 -1 -1 -1 -0 0 2 3 4 4 4 4 4 4 5 5 6 6 5 4 3 3 2 1 0 -1 -1 -1 -1 -1 -1 -0 0 1 2 2
3 3 3 2 3 3 2 2 1 1 -0 -1 -1 -2 -1 -1 -1 -1 -0 1 2 3 4 4 4 4 4 4 5 5 5 4 2 2 2 2 1 0 -1 -1 -1 -1 -1 -1 -0 -0 0 1 1
2 2 2 2 2 2 2 2 2 1 0 -0 -1 -1 -1 -1 -1 -1 -0 -0 1 2 3 4 4 4 4 4 4 4 4 3 2 1 1 1 0 -0 -1 -1 -1 -1 -1 -1 -1 -0 -0 0 1
2 2 2 1 1 1 2 2 2 1 0 0 -0 -1 -1 -1 -1 -1 -1 -1 -0 1 1 2 3 3 3 3 3 3 2 2 1 1 0 -0 -0 -0 -1 -1 -1 -1 -1 -1 -1 -1 -0 0 1
2 2 2 1 1 1 2 3 2 1 1 0 0 -1 -1 -1 -1 -1 -1 -1 -1 -0 -0 0 1 1 2 2 2 2 1 1 0 -0 -1 -1 -1 -1 -1 -1 -1 -1 -1 -1 -1 -1 -0 0 1
2 2 2 1 1 1 2 2 2 1 1 0 0 -0 -1 -1 -1 -1 -1 -1 -1 -1 -1 -1 -0 -0 0 0 0 0 0 -0 -1 -1 -1 -1 -1 -1 -1 -1 -0 -0 -0 -1 -1 -1 -0 0 1
2 2 2 2 1 1 2 2 2 1 1 0 0 0 -1 -1 -1 -1 -1 -1 -1 -1 -1 -1 -1 -1 -1 -1 -1 -1 -1 -1 -1 -1 -1 -1 -0 -0 0 -0 -0 -1 -1 -1 -1 -0 0 1 1
2 2 2 2 2 2 2 2 2 1 1 0 0 0 -0 -1 -1 -1 -1 -1 -1 -1 -1 -1 -1 -1 -2 -2 -1 -1 -1 -1 -1 -1 -1 -0 0 1 1 0 -1 -1 -1 -1 -0 0 0 1 1